User: anonymous   Login
Location: Holmes Observatory
(37.1039°N, 122.0513°W)
Time: 23:08:43
(UTC-07:00)
Language:

Cosmos 921 Rocket - Orbit

View from above orbital plane
View from above orbital plane
View from above satellite
View from above satellite

Ground track
Ground track

The orbit data is extracted from the following two-line orbital elements,

1 10096U 77055B   15210.34450786  .00000161  00000-0  19257-4 0  9992
2 10096 075.8352 142.9183 0042878 162.4881 197.7800 14.88298824 59768
Epoch (UTC): 29 July 2015 08:16:05
Eccentricity: 0.0042878
inclination: 75.8352°
perigee height: 573 km
apogee height: 633 km
right ascension of ascending node: 142.9183°
argument of perigee: 162.4881°
revolutions per day: 14.88298824
mean anomaly at epoch: 197.7800°
orbit number at epoch: 5976

The dashed part of the orbit path shows where the satellite is in the earth's shadow,  

DLR